Find Starlink 31419

NORAD ID: 59368 Int'l Des: 2024-060 Owner: SPXS Country: US Constellation: starlink operational
LEOCIRCULAR

Current View

Loading 3D Globe...

About Starlink 31419

Starlink 31419 (NORAD 59368) is a starlink constellation satellite (v2 mini) launched Mar 31, 2024 by SPXS of US. It operates in LEO, CIRCULAR orbit with a mass of 730.00 kg.

Upcoming Passes

Passes for default location (London). Set your location on the main map for personalized predictions.

Altitude History

Loading altitude history...

Two-Line Element Set

1 59368U 24060W 26263.99675813 .00000145 00000-0 14806-4 0 9993
2 59368 43.0027 236.7676 0001370 271.7112 88.3583 15.27577403139939
Epoch: Sep 20, 2026 • Age: 15 hours

Current Status

Altitude 484.5 km
Apogee / Perigee N/A
Velocity 7.62 km/s
Sub-Earth Point -10.07°S, 159.74°W
Launch Date Mar 31, 2024
Age 2.4 years
Type internet

Technical Details

Classification Payload
Mass 730.00 kg
Dry Mass 700.00 kg
Length 0.30 m
Span 29.00 m
Shape ? Box + pan
Manufacturer SPXS
Bus Type Starlink V2M
Phase Status In Orbit
Owner/State SPXS/US

Most Searched